SCP
0 0 0 0 0 0 0 0 0 0 0 0 0 0 0 0 0 0 0 0 0 0 0 0 0 0 0 0 0 0 0 0 0 0 0 0 0 0 0 0 0 0 0 0
0 0 0 0 0 0 0 0 0 0 0 0 0 0 0 0 0 0 0 0 0 0 0 0 0 0 0 0 0 0 0 0 0 0 0 0 0 0 0 0 0 0 0 0
0 0 0 0 0 0 0 0 0 0 0 0 0 0 0 0 0 0 0 0 0 0 0 0 0 0 0 0 0 0 0 0 0 0 0 0 0 0 0 0 0 0 0 0
0 0 0 0 0 0 0 0 0 0 0 0 0 0 0 0 0 0 0 0 0 0 0 0 0 0 0 0 0 0 0 0 0 0 0 0 0 0 0 0 0 0 0 0
0 0 0 0 0 0 0 0 0 0 0 0 0 0 0 0 0 0 0 0 0 0 0 0 0 0 0 0 0 0 0 0 0 0 0 0 0 0 0 0 0 0 0 0
0 0 0 0 0 0 0 0 0 0 0 0 0 0 0 0 0 0 0 0 0 0 0 0 0 0 0 0 0 0 0 0 0 0 0 0 0 0 0 0 0 0 0 0
0 0 0 0 0 0 0 0 0 0 0 0 0 0 0 0 0 0 0 0 0 0 0 0 0 0 0 0 0 0 0 0 0 0 0 0 0 0 0 0 0 0 0 0
0 0 0 0 0 0 0 0 0 0 0 0 0 0 0 0 0 0 0 0 0 0 0 0 0 0 0 0 0 0 0 0 0 0 0 0 0 0 0 0 0 0 0 0
0 0 0 0 0 0 0 0 0 0 0 0 0 0 0 0 0 0 0 0 0 0 0 0 0 0 0 0 0 0 0 0 0 0 0 0 0 0 0 0 0 0 0 0
0 0 0 0 0 0 0 0 0 0 0 0 0 0 0 0 0 0 0 0 0 0 0 0 0 0 0 0 0 0 0 0 0 0 0 0 0 0 0 0 0 0 0 0
0 0 0 0 0 0 0 0 0 0 0 0 0 0 0 0 0 0 0 0 0 0 0 0 0 0 0 0 0 0 0 0 0 0 0 0 0 0 0 0 0 0 0 0
0 0 0 0 0 0 0 0 0 0 0 0 0 0 0 0 0 0 0 0 0 0 0 0 0 0 0 0 0 0 0 0 0 0 0 0 0 0 0 0 0 0 0 0
0 0 0 0 0 0 0 0 0 0 0 0 0 0 0 0 0 0 0 0 0 0 0 0 0 0 0 0 0 0 0 0 0 0 0 0 0 0 0 0 0 0 0 0
0 0 0 0 0 0 0 0 0 0 0 0 0 0 0 0 0 0 0 0 0 0 0 0 0 0 0 0 0 0 0 0 0 0 0 0 0 0 0 0 0 0 0 0
0 0 0 0 0 0 0 0 0 0 0 0 0 0 0 0 0 0 0 0 0 0 0 0 0 0 0 0 0 0 0 0 0 0 0 0 0 0 0 0 0 0 0 0
0 0 0 0 0 0 0 0 0 0 0 0 0 0 0 0 0 0 0 0 0 0 0 0 0 0 0 0 0 0 0 0 0 0 0 0 0 0 0 0 0 0 0 0
0 0 0 0 0 0 0 0 0 0 0 0 0 0 0 0 0 0 0 0 0 0 0 0 0 0 0 0 0 0 0 0 0 0 0 0 0 0 0 0 0 0 0 0
0 0 0 0 0 0 0 0 0 0 0 0 0 0 0 0 0 0 0 0 0 0 0 0 0 0 0 0 0 0 0 0 0 0 0 0 0 0 0 0 0 0 0 0
0 0 0 0 0 0 0 0 0 0 0 0 0 0 0 0 0 0 0 0 0 0 0 0 0 0 0 0 0 0 0 0 0 0 0 0 0 0 0 0 0 0 0 0
0 0 0 0 0 0 0 0 0 0 0 0 0 0 0 0 0 0 0 0 0 0 0 0 0 0 0 0 0 0 0 0 0 0 0 0 0 0 0 0 0 0 0 0
0 0 0 0 0 0 0 0 0 0 0 0 0 0 0 0 0 0 0 0 0 0 0 0 0 0 0 0 0 0 0 0 0 0 0 0 0 0 0 0 0 0 0 0
0 0 0 0 0 0 0 0 0 0 0 0 0 0 0 0 0 0 0 0 0 0 0 0 0 0 0 0 0 0 0 0 0 0 0 0 0 0 0 0 0 0 0 0
0 0 0 0 0 0 0 0 0 0 0 0 0 0 -0 0 0 0 0 0 0 0 0 0 0 0 0 0 0 0 0 0 0 0 0 0 0 0 0 0 0 0 0 0
0 0 0 0 0 0 0 0 0 0 0 0 0 -0 -0 0 0 0 0 0 0 0 0 0 0 0 0 0 0 0 0 0 0 0 0 0 0 0 0 0 0 0 0 0
0 0 0 0 0 0 0 0 0 0 0 0 0 -0 -0 0 0 0 0 0 0 0 0 0 0 0 0 0 0 0 0 0 0 0 0 0 0 0 0 0 0 0 0 0
0 0 0 0 0 0 0 0 0 0 0 0 0 -0 -0 -0 0 0 0 0 0 0 0 0 0 0 0 0 0 0 0 0 0 0 0 0 0 0 0 0 0 0 0 0
Wind_Speed
1 1 2 3 3 4 5 5 5 3 2 1 3 4 3 2 2 2 2 2 2 3 4 4 5 5 6 7 7 6 7 7 6 4 4 4 3 3 3 3 4 4 4 4
1 2 3 3 3 4 4 5 5 2 1 2 4 6 4 2 3 3 2 2 3 4 5 5 5 5 5 6 6 6 6 6 5 4 3 3 3 2 2 3 3 4 4 4
3 3 3 2 3 4 4 3 4 5 5 4 4 6 5 4 4 4 3 3 3 3 4 4 5 4 4 5 5 6 6 6 6 6 3 3 3 2 3 3 3 4 4 4
2 2 3 2 3 4 3 3 4 5 4 3 3 5 3 5 4 4 3 2 2 3 3 4 5 5 5 4 4 5 6 6 6 6 4 4 3 3 4 3 3 4 3 4
2 3 3 2 3 4 3 5 6 6 5 6 5 5 3 4 3 3 3 2 2 2 3 3 4 4 4 4 4 4 5 6 6 6 5 4 4 3 3 4 4 4 3 3
1 1 2 3 3 3 4 5 6 5 3 5 6 6 3 2 3 4 3 2 1 1 2 2 3 3 4 4 4 4 5 5 6 6 6 5 5 5 5 5 5 4 3 3
1 2 2 1 2 1 3 3 3 2 3 5 2 3 2 3 4 4 4 2 1 1 2 2 3 4 4 5 6 5 5 6 6 6 6 5 5 5 5 5 5 4 4 4
2 1 2 1 2 2 3 2 1 3 4 4 2 3 1 5 5 5 4 3 1 1 2 2 3 3 4 5 5 6 6 6 6 6 6 5 5 3 3 4 4 4 4 4
2 2 2 1 2 2 2 1 1 2 5 5 5 2 3 4 4 3 2 2 2 2 2 3 3 3 3 4 5 5 6 6 6 6 6 6 5 5 5 5 4 4 4 5
3 3 1 1 1 2 2 3 1 2 3 5 5 3 1 2 1 1 2 2 2 3 3 3 3 3 3 3 4 5 5 5 5 5 5 6 5 5 6 5 5 5 5 5
2 2 2 2 4 3 2 2 2 3 3 3 5 3 2 2 2 1 2 2 3 3 3 3 3 3 3 3 4 4 5 6 6 6 6 6 6 6 6 5 5 5 5 6
1 2 4 3 1 2 0 2 2 2 4 4 4 5 3 4 3 1 2 3 3 3 3 3 3 3 3 4 4 4 5 5 6 6 6 7 6 6 6 6 6 6 6 6
1 1 3 2 0 0 1 2 2 2 2 4 5 6 1 2 2 2 2 3 4 3 3 3 3 3 4 4 4 4 4 5 6 6 6 7 6 6 6 7 7 7 7 7
1 3 5 6 3 2 4 4 4 3 4 6 7 7 3 2 2 3 3 3 3 3 4 4 4 4 4 4 4 5 5 5 6 6 6 7 6 6 7 7 7 7 7 7
1 4 6 8 8 6 8 8 7 8 8 7 8 6 5 3 3 3 3 4 4 4 4 5 5 4 4 5 5 5 5 5 6 6 7 6 7 6 7 7 7 7 7 8
2 3 4 7 7 6 9 10 9 9 8 9 9 8 3 2 2 3 4 5 5 5 5 5 5 5 6 6 6 5 5 5 5 6 7 7 7 7 7 7 7 7 7 7
3 2 2 5 2 5 9 7 7 5 4 4 7 5 2 4 4 4 5 4 5 5 6 6 6 6 5 5 6 6 5 6 6 6 6 7 7 7 7 8 8 8 8 7
3 3 2 4 3 7 5 1 2 3 4 4 4 3 2 3 4 4 3 3 5 5 6 6 6 6 6 5 5 5 5 5 6 6 6 7 7 7 7 7 7 7 7 7
1 3 2 2 4 8 2 1 2 1 4 2 3 3 3 4 4 2 3 4 4 4 5 5 5 5 6 5 5 5 6 5 6 6 7 7 7 7 7 8 7 7 7 7
1 1 2 3 4 7 2 2 2 1 4 1 1 2 3 3 3 3 4 5 5 5 5 5 5 5 6 6 4 5 6 6 6 7 7 7 7 7 7 7 7 7 6 7
3 3 5 6 6 7 1 2 1 1 4 1 1 2 2 2 3 4 5 5 5 5 5 5 6 5 5 5 5 5 6 6 6 7 7 7 7 7 7 6 6 6 6 7
6 5 5 4 6 7 2 3 3 3 1 2 2 2 2 3 4 4 4 5 6 6 6 6 5 6 6 5 5 6 7 6 6 6 7 7 7 6 6 6 6 5 5 6
5 5 4 6 6 1 3 3 1 1 1 2 2 3 2 3 4 5 4 5 5 6 6 5 5 6 6 5 5 7 7 6 6 7 7 7 7 6 6 5 5 5 4 4
3 1 2 3 3 1 2 1 1 1 1 2 3 3 3 3 4 4 5 5 5 6 6 5 6 7 7 6 6 6 7 6 6 7 7 7 6 6 5 5 4 4 4 4
2 3 2 4 3 2 1 0 1 1 2 2 2 2 2 3 4 4 4 5 5 6 6 6 6 6 7 7 7 7 6 6 6 6 6 6 6 6 5 5 4 5 4 5
2 4 4 4 2 2 1 1 0 1 1 2 2 3 3 2 3 4 4 4 4 5 5 6 6 7 7 7 7 7 6 6 6 7 7 5 5 5 5 5 5 8 8 10
Wind_Direction
98 45 36 19 359 323 317 308 305 322 23 349 251 243 233 223 172 135 108 80 58 44 46 38 34 28 24 18 14 11 9 5 5 6 5 354 350 342 346 352 357 357 347 343
107 55 8 352 355 325 313 304 308 324 2 299 265 258 227 179 146 129 115 88 57 35 23 27 29 26 24 16 8 7 7 2 3 354 349 335 329 325 338 346 344 346 342 337
67 44 355 341 350 330 306 307 314 312 315 263 272 270 198 160 133 116 94 74 63 38 23 17 17 16 17 13 7 359 358 359 356 350 350 349 342 345 350 346 339 337 335 333
67 21 346 350 358 335 303 352 318 296 297 273 226 276 215 161 145 137 121 86 55 38 26 17 13 7 8 5 2 358 357 357 357 353 352 351 348 339 329 325 320 321 328 329
53 19 353 354 349 329 313 320 292 276 271 280 247 252 254 156 170 163 147 119 74 43 26 14 9 2 3 1 358 354 355 356 355 353 349 346 340 328 322 322 320 321 319 324
127 67 15 353 326 303 304 292 270 252 260 262 230 218 248 188 178 146 144 128 97 51 20 5 2 4 3 1 356 355 355 351 350 349 347 344 339 335 332 330 326 322 316 314
184 150 113 338 320 303 315 332 333 305 229 245 217 217 233 86 87 116 127 122 105 50 9 358 1 1 359 358 356 352 351 349 347 345 345 339 336 330 324 322 318 318 314 310
289 250 124 53 6 317 293 305 253 273 280 304 307 238 161 90 77 79 86 89 73 19 4 355 355 358 355 352 352 352 349 344 342 342 338 334 331 323 314 315 312 308 303 300
322 281 102 64 344 320 308 269 299 289 288 276 254 182 114 93 85 80 77 54 18 0 356 347 351 356 353 348 345 346 343 336 337 338 333 327 329 326 318 312 310 306 306 303
328 290 242 156 234 241 296 324 313 248 279 281 276 263 194 162 172 48 22 4 359 348 339 345 348 347 346 339 337 340 336 333 329 330 327 325 324 320 316 312 311 309 307 305
311 276 260 224 213 220 194 235 247 259 258 267 288 284 64 109 104 57 3 351 339 337 337 339 337 335 337 339 339 335 333 333 329 326 323 320 317 317 316 310 310 310 308 302
341 295 263 245 109 39 320 249 220 230 265 255 270 276 65 80 77 57 4 350 343 334 336 339 334 333 338 337 333 330 328 328 325 322 318 314 315 319 317 314 312 310 306 302
19 256 293 282 167 94 258 244 250 266 283 255 255 263 95 42 21 11 1 350 341 339 340 342 340 336 335 333 328 323 321 322 321 321 316 316 320 321 318 314 313 311 307 303
310 237 224 246 278 281 261 250 234 223 236 258 251 274 290 318 341 346 345 337 327 330 331 338 336 334 332 328 322 319 318 320 321 320 319 317 317 316 314 313 312 310 307 303
226 254 255 267 280 276 267 261 240 231 236 249 273 289 296 314 321 327 331 332 331 331 335 338 336 332 327 324 320 318 317 320 320 318 316 315 315 316 317 315 313 313 310 306
213 264 291 277 263 265 269 259 246 244 245 255 276 282 291 321 343 340 333 332 330 332 336 337 333 330 329 326 322 318 316 316 316 313 313 315 317 318 320 318 317 316 311 307
205 220 267 273 291 308 268 243 219 225 226 227 249 261 341 340 332 324 318 325 330 332 335 332 327 322 322 323 322 312 308 311 311 309 313 316 316 318 320 321 321 318 315 313
203 217 241 280 312 253 244 55 128 210 249 240 256 283 318 315 316 307 322 354 337 333 331 328 327 327 323 320 321 318 312 310 308 310 315 317 317 317 318 318 318 319 318 315
210 193 235 250 266 270 244 126 109 191 276 259 258 299 324 346 329 320 29 15 343 333 330 328 326 321 320 321 322 320 315 312 312 315 316 318 317 315 314 314 316 317 317 316
132 173 217 233 254 261 247 98 81 83 273 343 28 319 333 351 311 292 355 352 341 337 335 333 329 328 327 326 330 323 316 317 316 316 316 316 314 312 311 311 312 314 314 313
177 199 216 231 246 262 191 149 115 203 257 3 7 331 332 289 264 299 333 336 335 331 330 331 328 327 326 329 331 319 316 315 315 317 314 314 313 312 307 308 310 314 316 316
185 194 205 205 228 248 134 135 186 227 359 3 353 356 329 305 312 325 330 329 330 329 331 333 330 327 329 334 335 325 319 317 320 319 317 314 314 313 315 313 315 317 317 317
200 200 198 203 219 200 145 160 170 46 348 342 342 339 331 314 312 319 322 323 325 328 330 332 328 325 329 335 336 324 319 323 324 321 319 316 315 315 315 314 316 317 318 319
215 190 228 259 258 225 170 174 18 25 7 351 349 339 330 310 312 318 321 325 326 329 330 333 332 330 331 335 334 325 323 326 323 320 319 321 323 320 320 319 320 319 318 316
216 175 226 253 276 313 243 298 355 7 7 352 343 335 322 316 314 316 317 319 321 326 329 329 329 327 326 330 329 327 328 329 323 318 318 323 324 322 322 321 320 319 311 312
179 182 197 229 220 205 245 287 346 334 320 321 327 327 332 321 308 313 313 317 320 321 324 325 326 325 324 326 326 328 331 329 325 323 324 323 321 321 323 322 324 331 328 328